Weather History for San Luis Potosi, Mexico

Change the Weather History Date:

Thursday, March 28, 2013

  Actual Average Record
Temperature  
Mean Temperature 62 °F -  
Max Temperature 82 °F 80 °F 89 °F (1998)
Min Temperature 42 °F 50 °F 42 °F (2005)
Degree Days  
Heating Degree Days 3    
Growing Degree Days 12 (Base 50)    
Moisture  
Dew Point 43 °F    
Average Humidity 59    
Maximum Humidity 100    
Minimum Humidity 14    
Precipitation  
Precipitation 0.00 in - - ()
Sea Level Pressure  
Sea Level Pressure 30.13 in    
Wind  
Wind Speed 2 mph ()    
Max Wind Speed 16 mph    
Max Gust Speed -    
Visibility 8.6 miles    
Events      
Averages and records for this station are not official NWS values.
T = Trace of Precipitation, MM = Missing Value Source: Averaged Metar Reports

Daily Weather History Graph

Daily Weather History Graph

Search for Another Location

Airport:

Trip Planner

Search our weather history database for the weather conditions in past years. The results will help you decide how hot, cold, wet, or windy it might be!

Date:

Astronomy

Mar. 28, 2013 Rise Set
Actual Time 6:39 AM CST 6:57 PM CST
Civil Twilight 6:17 AM CST 7:20 PM CST
Nautical Twilight 5:51 AM CST 7:46 PM CST
Astronomical Twilight 5:25 AM CST 8:12 PM CST
Moon 8:33 PM CST (3/28) 7:23 AM CST (3/28)
Length of Visible Light 13h 02m
Length of Day
12h 17m
Full, 98% of the Moon is Illuminated
Mar 28
Full
Apr 2
Last Quarter
Apr 10
New
Apr 18
First Quarter
Apr 25
Full

Hourly Weather History & Observations

Time (CST) Temp. Dew Point Humidity Pressure Visibility Wind Dir Wind Speed Gust Speed Precip Events Conditions
12:47 AM 48.2 °F 48.2 °F 100% 30.31 in 8.0 mi Calm Calm - N/A   Clear
1:48 AM 48.2 °F 48.2 °F 100% 30.31 in 8.0 mi NNE 4.6 mph - N/A   Clear
2:47 AM 46.4 °F 46.4 °F 100% 29.94 in 4.0 mi Calm Calm - N/A   Clear
3:43 AM 46.4 °F 46.4 °F 100% 30.30 in 2.0 mi Calm Calm - N/A   Mostly Cloudy
4:40 AM 46.4 °F 46.4 °F 100% 30.30 in 2.0 mi Calm Calm - N/A   Overcast
5:45 AM 46.4 °F 46.4 °F 100% 29.95 in 2.0 mi Calm Calm - N/A   Overcast
5:50 AM 47 °F 42 °F 77% 30.13 in 5 mi North 2.2 mph - -   Overcast
6:46 AM 48.2 °F 48.2 °F 100% 30.30 in 2.0 mi Calm Calm - N/A   Overcast
7:40 AM 50.0 °F 46.4 °F 87% 30.31 in 2.0 mi Calm Calm - N/A   Overcast
8:45 AM 52 °F 48 °F 81% 30.20 in 6 mi Calm Calm - -   Haze
8:52 AM 50.0 °F 44.6 °F 82% 30.06 in 3.0 mi Calm Calm - N/A   Overcast
9:45 AM 53.6 °F 44.6 °F 72% 30.32 in 4.0 mi Calm Calm - N/A   Mostly Cloudy
10:50 AM 62.6 °F 41.0 °F 45% 30.31 in 7.0 mi Calm Calm - N/A   Mostly Cloudy
11:45 AM 69 °F 49 °F 38% 30.14 in 7 mi Calm Calm - -   Haze
11:49 AM 69.8 °F 39.2 °F 33% 30.00 in 12.0 mi Calm Calm - N/A   Mostly Cloudy
12:45 PM 73.4 °F 35.6 °F 25% 30.28 in 15.0 mi Calm Calm - N/A   Mostly Cloudy
1:48 PM 75.2 °F 37.4 °F 25% 30.23 in 15.0 mi Calm Calm - N/A   Scattered Clouds
2:50 PM 81 °F 44 °F 17% 29.96 in 11 mi North 4.5 mph - -   Haze
2:53 PM 78.8 °F 28.4 °F 16% 29.80 in 15.0 mi Calm Calm - N/A   Mostly Cloudy
3:45 PM 80.6 °F 32.0 °F 17% 30.15 in 15.0 mi Calm Calm - N/A   Mostly Cloudy
4:43 PM 80.6 °F 26.6 °F 14% 30.13 in 15.0 mi Calm Calm - N/A   Mostly Cloudy
5:48 PM 77.0 °F 35.6 °F 22% 29.80 in 15.0 mi East 16.1 mph - N/A   Mostly Cloudy
5:50 PM 79 °F 39 °F 14% 29.88 in 11 mi East 4.5 mph - -   Haze
6:47 PM 71.6 °F 37.4 °F 29% 30.16 in 15.0 mi SE 13.8 mph - N/A   Scattered Clouds
7:52 PM 68.0 °F 41.0 °F 37% 30.19 in 12.0 mi East 9.2 mph - N/A   Partly Cloudy
8:49 PM 64.4 °F 46.4 °F 52% 29.91 in 10.0 mi SSE 9.2 mph - N/A   Partly Cloudy
8:50 PM 54 °F 49 °F 79% 29.93 in 5 mi North 2.2 mph - -  
9:45 PM 60.8 °F 48.2 °F 63% 30.27 in 10.0 mi Calm Calm - N/A   Clear
10:41 PM 57.2 °F 50.0 °F 77% 30.29 in 10.0 mi Calm Calm - N/A   Clear
11:40 PM 55.4 °F 48.2 °F 77% 29.97 in 10.0 mi Calm Calm - N/A   Clear